TimeCST,TemperatureF,Dew PointF,Humidity,Sea Level PressureIn,VisibilityMPH,Wind Direction,Wind SpeedMPH,Gust SpeedMPH,PrecipitationIn,Events,Conditions,WindDirDegrees,DateUTC
12:11 AM,32.0,21.2,64,30.10,10.0,South,15.0,-,N/A,,Clear,180,2001-01-10 06:11:00
12:29 AM,32.0,21.2,64,30.09,10.0,South,15.0,-,N/A,,Clear,180,2001-01-10 06:29:00
1:29 AM,30.2,21.2,69,30.08,10.0,South,12.7,-,N/A,,Clear,180,2001-01-10 07:29:00
1:51 AM,30.2,23.0,75,30.07,10.0,South,12.7,-,N/A,,Clear,180,2001-01-10 07:51:00
2:09 AM,30.2,21.2,69,30.07,10.0,South,11.5,-,N/A,,Clear,180,2001-01-10 08:09:00
2:31 AM,30.2,23.0,75,30.06,10.0,South,11.5,17.3,N/A,,Clear,170,2001-01-10 08:31:00
2:49 AM,30.2,23.0,75,30.06,10.0,South,12.7,-,N/A,,Clear,170,2001-01-10 08:49:00
3:31 AM,32.0,24.8,75,30.05,10.0,South,10.4,-,N/A,,Clear,180,2001-01-10 09:31:00
4:11 AM,30.2,24.8,80,30.03,10.0,South,12.7,-,N/A,,Clear,180,2001-01-10 10:11:00
4:49 AM,30.2,24.8,80,30.02,10.0,South,12.7,-,N/A,,Clear,180,2001-01-10 10:49:00
5:11 AM,32.0,24.8,75,30.02,10.0,South,13.8,-,N/A,,Clear,180,2001-01-10 11:11:00
5:29 AM,30.2,24.8,80,30.02,10.0,South,13.8,19.6,N/A,,Clear,180,2001-01-10 11:29:00
5:49 AM,32.0,24.8,75,30.01,10.0,South,15.0,-,N/A,,Clear,180,2001-01-10 11:49:00
6:09 AM,32.0,24.8,75,30.01,10.0,South,12.7,19.6,N/A,,Clear,170,2001-01-10 12:09:00
6:31 AM,32.0,24.8,75,30.01,10.0,South,13.8,-,N/A,,Clear,170,2001-01-10 12:31:00
6:49 AM,32.0,24.8,75,30.00,10.0,South,12.7,-,N/A,,Clear,170,2001-01-10 12:49:00
7:09 AM,32.0,26.6,80,30.00,10.0,South,15.0,-,N/A,,Clear,180,2001-01-10 13:09:00
7:29 AM,32.0,26.6,80,30.00,10.0,South,17.3,-,N/A,,Clear,170,2001-01-10 13:29:00
7:49 AM,33.8,26.6,75,30.00,10.0,South,17.3,23.0,N/A,,Clear,180,2001-01-10 13:49:00
8:30 AM,33.8,26.6,75,30.00,10.0,South,16.1,-,N/A,,Clear,180,2001-01-10 14:30:00
8:50 AM,35.6,26.6,70,30.00,10.0,South,17.3,23.0,N/A,,Clear,180,2001-01-10 14:50:00
9:51 AM,39.2,28.4,65,30.01,10.0,South,18.4,24.2,N/A,,Clear,180,2001-01-10 15:51:00
10:10 AM,39.2,28.4,65,30.01,10.0,South,15.0,20.7,N/A,,Clear,190,2001-01-10 16:10:00
10:33 AM,41.0,28.4,61,30.01,10.0,South,16.1,26.5,N/A,,Clear,180,2001-01-10 16:33:00
10:50 AM,39.2,28.4,65,30.00,10.0,South,16.1,-,N/A,,Clear,190,2001-01-10 16:50:00
11:10 AM,41.0,28.4,61,30.00,10.0,South,17.3,-,N/A,,Clear,180,2001-01-10 17:10:00
11:30 AM,41.0,28.4,61,29.99,10.0,South,17.3,-,N/A,,Clear,180,2001-01-10 17:30:00
11:53 AM,41.0,28.4,61,29.99,10.0,South,16.1,-,N/A,,Clear,190,2001-01-10 17:53:00
12:10 PM,42.8,30.2,61,29.98,10.0,South,16.1,21.9,N/A,,Clear,190,2001-01-10 18:10:00
12:49 PM,46.4,30.2,53,29.95,10.0,South,20.7,25.3,N/A,,Clear,180,2001-01-10 18:49:00
1:11 PM,46.4,30.2,53,29.95,10.0,South,24.2,-,N/A,,Clear,190,2001-01-10 19:11:00
1:29 PM,46.4,30.2,53,29.94,10.0,South,19.6,25.3,N/A,,Clear,190,2001-01-10 19:29:00
2:11 PM,48.2,30.2,50,29.93,10.0,South,19.6,26.5,N/A,,Clear,190,2001-01-10 20:11:00
2:32 PM,48.2,30.2,50,29.93,10.0,SSW,17.3,25.3,N/A,,Clear,200,2001-01-10 20:32:00
2:57 PM,48.2,30.2,50,29.93,10.0,South,18.4,26.5,N/A,,Clear,190,2001-01-10 20:57:00
3:09 PM,46.4,30.2,53,29.92,10.0,South,13.8,20.7,N/A,,Clear,180,2001-01-10 21:09:00
3:31 PM,46.4,30.2,53,29.92,10.0,South,12.7,-,N/A,,Clear,170,2001-01-10 21:31:00
4:31 PM,46.4,30.2,53,29.91,10.0,South,18.4,23.0,N/A,,Clear,180,2001-01-10 22:31:00
4:49 PM,44.6,32.0,61,29.91,10.0,South,18.4,24.2,N/A,,Clear,190,2001-01-10 22:49:00
5:11 PM,44.6,32.0,61,29.92,10.0,South,13.8,-,N/A,,Clear,180,2001-01-10 23:11:00
5:32 PM,42.8,32.0,66,29.92,10.0,South,9.2,-,N/A,,Clear,180,2001-01-10 23:32:00
5:49 PM,42.8,32.0,66,29.92,10.0,South,13.8,-,N/A,,Clear,170,2001-01-10 23:49:00
6:13 PM,42.8,33.8,70,29.92,10.0,South,15.0,-,N/A,,Clear,180,2001-01-11 00:13:00
6:29 PM,42.8,33.8,70,29.93,10.0,South,16.1,21.9,N/A,,Clear,180,2001-01-11 00:29:00
6:53 PM,42.8,33.8,70,29.94,10.0,South,16.1,21.9,N/A,,Clear,180,2001-01-11 00:53:00
7:09 PM,42.8,33.8,70,29.94,10.0,South,19.6,-,N/A,,Clear,190,2001-01-11 01:09:00
7:31 PM,42.8,33.8,70,29.94,10.0,South,19.6,25.3,N/A,,Clear,180,2001-01-11 01:31:00
8:09 PM,42.8,33.8,70,29.94,10.0,South,19.6,29.9,N/A,,Clear,180,2001-01-11 02:09:00
8:31 PM,41.0,32.0,70,29.94,10.0,South,19.6,-,N/A,,Clear,190,2001-01-11 02:31:00
8:49 PM,41.0,32.0,70,29.94,10.0,South,18.4,-,N/A,,Clear,190,2001-01-11 02:49:00
9:29 PM,39.2,33.8,81,29.94,10.0,South,19.6,26.5,N/A,,Clear,180,2001-01-11 03:29:00
9:51 PM,39.2,33.8,81,29.94,10.0,South,17.3,24.2,N/A,,Clear,190,2001-01-11 03:51:00
10:11 PM,39.2,33.8,81,29.95,10.0,South,18.4,24.2,N/A,,Clear,180,2001-01-11 04:11:00
10:31 PM,39.2,33.8,81,29.95,10.0,South,17.3,-,N/A,,Clear,180,2001-01-11 04:31:00
10:52 PM,39.2,33.8,81,29.96,10.0,South,16.1,23.0,N/A,,Clear,190,2001-01-11 04:52:00
11:09 PM,39.2,33.8,81,29.96,10.0,South,17.3,21.9,N/A,,Clear,180,2001-01-11 05:09:00
11:31 PM,39.2,33.8,81,29.96,10.0,South,16.1,-,N/A,,Clear,190,2001-01-11 05:31:00
11:49 PM,39.2,33.8,81,29.97,10.0,South,16.1,-,N/A,,Clear,190,2001-01-11 05:49:00